Probability
0 0 0 0 0 0 0 0 0 0 0 0 0 0 0 0 0 0 0 0 0 0 0 0 0 0 0 0 0 0 0 0 0 0 0 0 0 0 0 0 0 0 0 0
0 0 0 0 0 0 0 0 0 0 0 0 0 0 0 0 0 0 0 0 0 0 0 0 0 0 0 0 0 0 0 0 0 0 0 0 0 0 0 0 0 0 0 0
0 0 0 0 0 0 0 0 0 0 0 0 0 0 0 0 0 0 0 0 0 0 0 0 0 0 0 0 0 0 0 0 0 0 0 0 0 0 0 0 0 0 0 0
0 0 0 0 0 0 0 0 0 0 0 0 0 0 0 0 0 0 0 0 0 0 0 0 0 0 0 0 0 0 0 0 0 0 0 0 0 0 0 0 0 0 0 0
0 0 0 0 0 0 0 0 0 0 0 0 0 0 0 0 0 0 0 0 0 0 0 0 0 0 0 0 0 0 0 0 0 0 0 0 0 0 0 0 0 0 0 0
0 0 0 0 0 0 0 0 0 0 0 0 0 0 0 0 0 0 0 0 0 0 0 0 0 0 0 0 0 0 0 0 0 0 0 0 0 0 0 0 0 0 0 0
0 0 0 0 0 0 0 0 0 0 0 0 0 0 0 0 0 0 0 0 0 0 0 0 0 0 0 0 0 0 0 0 0 0 0 0 0 0 0 0 0 0 0 0
0 0 0 0 0 0 0 0 0 0 0 0 0 0 0 0 0 0 0 0 0 0 0 0 0 0 0 0 0 0 0 0 0 0 0 0 0 0 0 0 0 0 0 0
0 0 0 0 0 0 0 0 0 0 0 0 0 0 0 0 0 0 0 0 0 0 0 0 0 0 0 0 0 0 0 0 0 0 0 0 0 0 0 0 0 0 0 0
0 0 0 0 0 0 0 0 0 0 0 0 0 0 0 0 0 0 0 0 0 0 0 0 0 0 0 0 0 0 0 0 0 0 0 0 0 0 0 0 0 0 0 0
0 0 0 0 0 0 0 0 0 0 0 0 0 0 0 0 0 0 0 0 0 0 0 0 0 0 0 0 0 0 0 0 0 0 0 0 0 0 0 0 0 0 0 0
0 0 0 0 0 0 0 0 0 0 0 0 0 0 0 0 0 0 0 0 0 0 0 0 0 0 0 0 0 0 0 0 0 0 0 0 0 0 0 0 0 0 0 0
0 0 0 0 0 0 0 0 0 0 0 0 0 0 0 0 0 0 0 0 0 0 0 0 0 0 0 0 0 0 0 0 0 0 0 0 0 0 0 0 0 0 0 0
0 0 0 0 0 0 0 0 0 0 0 0 0 0 0 0 0 0 0 0 0 0 0 0 0 0 0 0 0 0 0 0 0 0 0 0 0 0 0 0 0 0 0 0
0 0 0 0 0 0 0 0 0 0 0 0 0 0 0 0 0 0 0 0 0 0 0 0 0 0 0 0 0 0 0 0 0 0 0 0 0 0 0 0 0 0 0 0
0 0 0 0 0 0 0 0 0 0 0 0 0 0 0 0 0 0 0 0 0 0 0 0 0 0 0 0 0 0 0 0 0 0 0 0 0 0 0 0 0 0 0 0
0 0 0 0 0 0 0 0 0 0 0 0 0 0 0 0 0 0 0 0 0 0 0 0 0 0 0 0 0 0 0 0 0 0 0 0 0 0 0 0 0 0 0 0
0 0 0 0 0 0 0 0 0 0 0 0 0 0 0 0 0 0 0 0 0 0 0 0 0 0 0 0 0 0 0 0 0 0 0 0 0 0 0 0 0 0 0 0
0 0 0 0 0 0 0 0 0 0 0 0 0 0 0 0 0 0 0 0 0 0 0 0 0 0 0 0 0 0 0 0 0 0 0 0 0 0 0 0 0 0 0 0
0 0 0 0 0 0 0 0 0 0 0 0 0 0 0 0 0 0 0 0 0 0 0 0 0 0 0 0 0 0 0 0 0 0 0 0 0 0 0 0 0 0 0 0
0 0 0 0 0 0 0 0 0 0 0 0 0 0 0 0 0 0 0 0 0 0 0 0 0 0 0 0 0 0 0 0 0 0 0 0 0 0 0 0 0 0 0 0
0 0 0 0 0 0 0 0 0 0 0 0 0 0 0 0 0 0 0 0 0 0 0 0 0 0 0 0 0 0 0 0 0 0 0 0 0 0 0 0 0 0 0 0
0 0 0 0 0 0 0 0 0 0 0 0 0 0 0 0 0 0 0 0 0 0 0 0 0 0 0 0 0 0 0 0 0 0 0 0 0 0 0 0 0 0 0 0
0 0 0 0 0 0 0 0 0 0 0 0 0 0 0 0 0 0 0 0 0 0 0 0 0 0 0 0 0 0 0 0 0 0 0 0 0 0 0 0 0 0 0 0
0 0 0 0 0 0 0 0 0 0 0 0 0 0 0 0 0 0 0 0 0 0 0 0 0 0 0 0 0 0 0 0 0 0 0 0 0 0 0 0 0 0 0 0
0 0 0 0 0 0 0 0 0 0 0 0 0 0 0 0 0 0 0 0 0 0 0 0 0 0 0 0 0 0 0 0 0 0 0 0 0 0 0 0 0 0 0 0
Height
5719 5719 5717 5716 5714 5713 5711 5710 5709 5709 5707 5705 5704 5704 5704 5702 5701 5701 5700 5699 5699 5698 5698 5697 5696 5696 5695 5695 5696 5697 5698 5699 5700 5702 5703 5705 5706 5707 5709 5710 5711 5713 5714 5715
5710 5709 5708 5706 5704 5702 5701 5699 5699 5698 5696 5694 5693 5692 5692 5691 5690 5689 5688 5687 5687 5686 5685 5684 5684 5683 5683 5683 5683 5684 5685 5686 5687 5688 5690 5692 5693 5694 5696 5697 5698 5700 5701 5702
5700 5700 5697 5696 5694 5692 5691 5689 5687 5686 5685 5682 5681 5680 5681 5680 5678 5677 5676 5675 5674 5673 5672 5671 5671 5670 5670 5670 5670 5671 5671 5672 5674 5675 5676 5678 5679 5681 5682 5683 5685 5686 5688 5689
5691 5690 5687 5685 5684 5681 5680 5678 5676 5674 5672 5670 5669 5666 5669 5668 5666 5665 5663 5662 5661 5660 5659 5658 5657 5657 5656 5656 5657 5657 5658 5659 5660 5661 5662 5664 5665 5666 5668 5669 5671 5672 5673 5675
5682 5680 5677 5675 5674 5671 5669 5667 5665 5662 5659 5658 5657 5653 5655 5655 5653 5652 5650 5649 5647 5646 5644 5644 5643 5643 5643 5642 5643 5644 5645 5646 5647 5647 5648 5649 5650 5651 5653 5654 5655 5657 5658 5660
5672 5670 5667 5665 5663 5660 5658 5656 5653 5650 5648 5646 5646 5642 5641 5641 5640 5638 5637 5635 5633 5632 5631 5630 5629 5629 5628 5628 5629 5630 5631 5632 5632 5633 5633 5634 5635 5636 5637 5639 5640 5641 5643 5644
5662 5660 5657 5655 5653 5651 5648 5645 5641 5638 5636 5634 5633 5629 5629 5627 5625 5623 5622 5620 5619 5618 5617 5616 5615 5615 5615 5615 5616 5617 5617 5618 5618 5618 5619 5619 5620 5620 5621 5622 5624 5625 5627 5628
5651 5650 5648 5645 5642 5640 5637 5635 5632 5627 5624 5623 5620 5617 5617 5614 5611 5609 5607 5606 5605 5604 5603 5602 5601 5601 5601 5601 5602 5602 5602 5603 5603 5603 5604 5604 5604 5604 5605 5606 5607 5608 5610 5611
5641 5640 5638 5635 5632 5629 5626 5624 5621 5616 5612 5609 5607 5605 5604 5601 5598 5596 5594 5592 5591 5590 5589 5588 5588 5587 5587 5587 5587 5587 5587 5587 5588 5588 5588 5588 5588 5588 5589 5589 5590 5591 5593 5594
5631 5629 5628 5625 5622 5618 5616 5613 5610 5606 5601 5597 5596 5594 5593 5589 5586 5584 5581 5579 5577 5576 5575 5574 5574 5573 5573 5573 5573 5572 5571 5572 5572 5571 5571 5572 5572 5572 5572 5572 5573 5574 5575 5577
5621 5619 5617 5614 5611 5608 5606 5603 5599 5595 5591 5587 5583 5585 5581 5578 5575 5572 5570 5567 5566 5565 5563 5561 5560 5560 5559 5559 5558 5557 5556 5556 5555 5555 5555 5555 5555 5555 5555 5556 5556 5557 5558 5559
5612 5608 5606 5604 5601 5598 5595 5592 5589 5585 5581 5577 5573 5574 5570 5567 5564 5561 5559 5556 5554 5553 5551 5549 5548 5547 5546 5545 5544 5543 5541 5540 5539 5539 5539 5539 5538 5538 5539 5539 5539 5540 5541 5542
5601 5598 5595 5593 5593 5589 5585 5581 5578 5574 5570 5567 5563 5564 5559 5556 5553 5550 5548 5545 5543 5541 5539 5537 5535 5534 5532 5531 5529 5528 5526 5525 5524 5523 5523 5523 5523 5522 5522 5522 5523 5523 5524 5525
5590 5588 5586 5584 5581 5577 5574 5571 5568 5564 5560 5556 5554 5552 5550 5546 5543 5540 5537 5535 5532 5530 5527 5525 5523 5521 5519 5517 5516 5514 5512 5511 5509 5509 5508 5507 5507 5507 5506 5506 5506 5507 5507 5508
5580 5578 5575 5573 5570 5567 5564 5561 5557 5553 5550 5546 5544 5541 5540 5536 5533 5530 5527 5524 5522 5519 5517 5514 5511 5509 5507 5505 5503 5501 5499 5497 5495 5494 5493 5492 5492 5491 5491 5490 5490 5490 5491 5491
5570 5568 5565 5564 5561 5557 5554 5551 5547 5544 5540 5537 5534 5532 5530 5526 5523 5520 5517 5514 5511 5508 5505 5503 5500 5497 5495 5492 5490 5488 5486 5484 5482 5480 5479 5478 5477 5476 5475 5475 5475 5475 5475 5475
5561 5558 5556 5554 5551 5547 5545 5543 5538 5535 5531 5528 5525 5524 5520 5517 5514 5510 5507 5503 5500 5497 5494 5491 5488 5485 5483 5480 5478 5476 5473 5471 5469 5467 5465 5464 5462 5461 5460 5460 5459 5459 5459 5459
5552 5549 5546 5543 5541 5538 5538 5533 5529 5525 5523 5519 5516 5513 5510 5507 5504 5500 5496 5493 5490 5487 5483 5480 5477 5474 5471 5468 5466 5463 5460 5458 5456 5454 5452 5450 5449 5447 5446 5445 5444 5444 5443 5443
5543 5540 5537 5534 5530 5528 5527 5524 5520 5516 5514 5511 5507 5504 5501 5498 5495 5492 5487 5483 5480 5477 5473 5470 5467 5463 5460 5457 5454 5451 5448 5445 5443 5441 5439 5437 5435 5434 5432 5431 5430 5429 5429 5428
5534 5531 5529 5525 5521 5519 5520 5515 5511 5508 5506 5503 5499 5496 5493 5489 5486 5484 5479 5475 5471 5467 5464 5460 5457 5453 5449 5446 5442 5439 5436 5433 5431 5428 5426 5424 5422 5421 5420 5418 5417 5415 5414 5414
5525 5522 5520 5517 5513 5511 5510 5506 5503 5501 5499 5494 5491 5487 5484 5481 5478 5474 5470 5466 5462 5458 5454 5451 5447 5443 5439 5435 5432 5428 5425 5422 5419 5416 5414 5412 5410 5408 5407 5406 5404 5402 5401 5400
5517 5514 5512 5508 5505 5506 5501 5498 5495 5492 5488 5485 5482 5479 5476 5472 5469 5465 5461 5457 5453 5449 5446 5441 5437 5433 5429 5425 5421 5418 5414 5411 5408 5405 5402 5400 5398 5397 5395 5394 5392 5390 5389 5388
5509 5507 5503 5501 5501 5497 5493 5490 5487 5483 5480 5477 5473 5470 5467 5464 5460 5456 5452 5449 5445 5441 5436 5432 5428 5424 5419 5415 5411 5408 5404 5401 5397 5394 5392 5389 5387 5386 5384 5382 5381 5379 5377 5376
5501 5498 5496 5493 5492 5489 5485 5482 5479 5475 5472 5469 5465 5462 5459 5455 5452 5448 5444 5440 5436 5432 5427 5423 5418 5414 5410 5405 5401 5398 5394 5391 5388 5385 5382 5380 5377 5375 5373 5371 5370 5368 5366 5365
5494 5491 5488 5486 5484 5481 5478 5474 5471 5468 5464 5461 5457 5454 5450 5447 5443 5440 5436 5432 5427 5423 5418 5414 5409 5405 5401 5396 5392 5388 5384 5381 5378 5375 5372 5369 5367 5365 5363 5361 5359 5357 5356 5354
5486 5483 5481 5479 5476 5473 5470 5467 5463 5460 5457 5453 5449 5446 5442 5439 5435 5431 5427 5423 5418 5414 5409 5405 5400 5396 5391 5387 5383 5379 5375 5372 5369 5366 5363 5360 5358 5355 5353 5351 5349 5347 5346 5344
Wind_Speed
33 33 33 33 33 34 36 37 37 38 38 39 39 39 39 39 40 40 40 41 41 42 42 42 43 43 44 44 44 45 46 46 47 47 48 48 48 49 49 49 49 49 49 48
33 33 33 34 34 35 36 37 38 39 39 40 41 41 40 40 40 41 41 42 42 43 43 44 44 45 45 45 46 46 47 47 47 48 49 49 50 51 51 52 51 51 51 50
33 33 33 34 35 36 37 38 39 40 40 42 42 42 40 40 40 41 42 43 43 44 44 45 45 46 46 46 46 47 47 46 48 49 50 51 52 52 53 53 53 53 53 53
32 32 33 34 35 36 37 37 39 40 41 42 42 44 41 41 41 42 43 44 45 45 46 46 46 47 47 46 46 46 46 47 48 50 50 51 52 53 54 55 55 55 55 55
32 32 33 34 35 36 37 38 39 40 42 43 43 45 44 43 43 43 44 45 45 46 46 47 47 47 47 47 47 47 47 47 48 50 51 52 53 54 55 56 56 56 56 56
33 33 34 34 35 36 37 38 40 41 41 43 43 45 46 44 45 45 45 46 46 46 47 47 47 47 47 47 47 47 48 49 49 50 51 52 53 54 55 56 57 58 58 58
34 34 34 35 36 37 38 38 39 41 42 43 44 45 46 46 46 46 46 47 46 46 46 46 46 46 46 46 47 47 48 49 50 51 52 53 54 55 56 57 58 59 59 59
35 34 35 35 36 37 37 38 39 41 43 43 43 44 44 45 45 46 46 47 46 46 46 46 46 46 47 46 47 48 49 50 51 51 52 53 54 56 57 57 58 58 59 59
34 34 34 35 35 36 37 37 37 39 41 42 42 43 42 42 43 43 44 44 45 45 45 45 45 46 47 47 48 49 50 51 52 52 53 53 54 55 56 57 58 58 59 60
34 35 34 35 35 36 37 37 37 38 40 42 42 42 41 40 40 40 41 42 42 43 43 44 44 45 46 47 48 49 50 52 52 53 54 53 54 55 55 56 57 59 59 60
34 35 35 35 35 36 36 37 38 39 40 41 42 41 40 39 39 39 39 40 41 42 43 43 43 43 45 46 46 48 49 50 52 52 53 53 53 54 55 56 57 58 59 60
35 36 35 35 35 35 36 36 37 38 39 40 41 41 39 38 38 38 39 40 41 41 42 42 43 44 45 45 46 47 49 50 51 51 52 52 52 53 54 55 56 57 58 58
35 35 35 35 35 35 35 35 36 38 39 38 38 39 38 38 37 37 37 38 38 39 40 41 42 43 44 44 45 46 47 48 49 50 51 51 52 52 53 54 55 55 56 57
35 34 34 35 35 35 35 35 36 36 37 37 37 36 35 36 36 36 36 37 38 39 40 41 41 42 42 43 44 44 44 45 47 48 49 50 50 51 51 52 53 54 54 55
34 34 35 35 35 35 36 35 35 35 36 37 35 35 34 35 36 37 37 37 37 38 39 40 40 41 41 41 41 42 43 44 45 46 46 47 48 49 50 50 51 52 53 53
33 34 35 35 34 35 35 34 33 34 34 35 34 34 34 35 35 36 37 37 38 38 38 38 39 39 40 40 41 42 43 44 45 45 45 46 46 47 49 50 50 51 51 52
32 33 33 34 33 34 34 32 32 32 32 32 32 32 33 34 35 36 36 37 37 37 37 36 36 37 38 40 41 42 43 43 44 44 44 45 45 46 47 48 49 49 50 51
32 32 32 33 33 33 31 30 30 31 30 31 31 31 32 33 33 33 34 34 35 35 35 35 36 37 37 38 39 40 41 41 42 43 43 43 43 43 44 45 47 48 49 49
30 30 31 31 31 32 30 29 30 30 29 29 29 30 31 31 32 32 33 33 34 34 35 35 35 35 36 36 37 38 38 38 39 40 40 40 41 41 41 42 44 45 46 47
29 29 29 30 31 31 30 29 29 30 28 27 28 29 30 30 31 30 32 33 34 34 35 35 35 35 35 36 36 36 36 37 37 38 39 39 39 39 39 40 41 41 42 44
27 27 27 28 30 29 28 28 28 28 28 28 29 29 30 30 31 31 31 32 33 33 34 34 34 35 35 35 35 36 35 35 36 36 36 36 36 36 37 38 38 38 39 41
27 27 28 28 29 28 27 27 28 28 29 29 30 30 31 31 31 31 31 31 31 32 32 33 34 34 34 34 34 34 34 34 34 34 34 34 34 35 35 36 36 36 37 37
26 26 27 27 27 27 27 27 28 28 29 29 29 29 30 30 31 30 30 30 31 32 32 33 34 34 34 34 34 33 33 33 32 32 32 31 32 33 33 34 34 34 35 34
25 25 26 27 27 27 27 27 28 28 28 28 28 29 30 30 30 30 30 30 31 32 33 33 33 33 34 34 34 33 32 32 32 32 31 32 32 32 32 32 33 33 33 32
25 26 27 28 27 27 27 27 27 27 28 28 29 29 30 30 30 30 30 31 31 32 33 32 32 32 32 33 33 32 32 32 32 32 32 32 32 31 31 31 31 31 31 31
24 25 27 26 26 27 26 26 27 28 28 29 29 29 30 30 31 31 31 31 32 32 32 32 32 32 32 32 32 31 31 31 31 30 30 30 30 30 30 30 30 30 30 30
Wind_Direction
277 276 276 276 276 276 275 274 274 273 273 272 272 272 272 271 269 268 267 267 266 267 267 266 266 266 265 264 262 260 259 259 259 258 258 258 258 258 258 257 257 258 258 258
277 277 277 276 275 275 275 275 275 274 273 273 273 273 273 272 270 269 268 267 267 267 266 266 266 266 265 264 262 260 260 259 259 259 259 259 258 258 258 258 257 257 257 258
279 279 278 277 276 276 275 276 275 275 276 275 275 274 274 273 272 270 269 269 269 269 268 267 266 266 266 264 262 260 261 260 260 260 260 260 259 259 259 258 257 257 257 258
281 280 279 278 278 277 277 276 276 276 276 276 277 277 274 273 273 272 271 271 271 270 269 268 267 266 265 263 261 261 261 260 260 260 259 260 260 259 259 258 258 257 257 257
283 282 281 280 280 279 278 278 278 278 277 277 277 277 276 276 275 274 273 272 272 271 270 269 268 267 265 263 261 262 261 261 261 261 260 260 259 259 259 258 258 258 258 258
282 282 282 282 281 281 281 281 280 279 278 277 278 278 278 277 277 276 274 273 272 271 270 269 268 267 265 262 262 262 262 262 262 262 262 262 261 260 259 259 259 259 259 259
282 282 283 283 283 283 284 283 283 282 281 281 281 279 280 280 279 277 276 274 273 272 271 270 269 267 265 264 265 263 263 263 263 263 263 263 262 261 261 260 259 259 259 259
286 286 285 286 285 285 284 284 284 284 285 285 283 281 281 281 280 279 277 276 275 273 272 272 270 267 266 267 267 266 264 264 264 264 263 263 263 262 262 261 260 259 258 258
289 289 288 287 287 286 285 285 286 286 286 286 285 284 283 283 282 280 279 278 277 275 273 271 270 269 268 268 267 266 266 265 264 264 264 264 263 262 262 261 260 259 259 258
290 289 289 288 287 286 286 287 288 287 287 287 287 286 286 285 283 281 280 278 276 275 273 272 271 270 270 269 268 267 268 266 266 266 265 264 264 262 262 261 260 260 259 259
290 290 289 288 287 287 287 287 287 287 288 288 288 288 288 286 284 281 279 278 277 276 275 275 273 272 272 270 269 269 268 268 267 266 266 265 264 264 263 262 261 261 260 260
290 289 288 288 288 288 287 286 286 287 288 287 288 288 287 285 283 281 280 279 279 278 278 277 275 273 274 273 272 271 270 270 268 267 266 265 265 264 264 263 262 261 261 261
290 289 289 288 288 289 288 287 288 288 288 288 287 288 288 285 283 282 282 282 281 280 280 279 277 276 275 274 275 274 272 270 269 268 267 266 265 265 265 263 263 262 262 261
287 287 288 289 290 291 290 289 289 289 288 287 286 287 286 285 283 282 283 283 283 282 281 280 278 277 276 277 276 275 273 271 270 269 268 267 266 265 265 265 265 264 263 261
287 287 288 289 290 290 291 290 290 288 288 286 286 284 285 284 284 283 283 283 283 283 283 281 280 278 277 277 277 276 275 273 271 270 270 269 268 266 265 266 266 266 264 262
286 287 288 289 290 290 291 292 290 288 287 287 286 285 285 283 284 284 284 284 284 284 284 283 282 281 280 278 277 277 277 275 273 272 271 270 269 268 268 267 267 266 265 263
287 288 290 291 292 292 293 293 292 290 289 288 288 288 287 286 285 286 286 285 285 284 284 284 283 283 283 281 280 279 278 277 275 274 274 273 272 270 269 268 268 267 266 264
289 290 291 292 292 292 295 295 294 293 292 290 290 290 289 289 288 289 288 288 287 287 286 286 286 286 286 285 284 284 283 280 277 276 276 275 274 272 271 270 270 269 267 266
289 289 290 292 292 293 294 295 295 295 294 292 291 291 291 291 290 291 290 289 290 290 289 289 289 289 289 288 287 286 285 284 281 279 278 277 275 274 273 272 271 270 269 268
291 291 290 292 293 294 297 296 296 297 297 295 294 295 295 294 293 293 292 292 293 293 293 292 292 292 292 292 291 290 289 288 286 282 280 279 278 276 274 274 273 272 270 269
291 291 292 293 294 296 298 297 297 297 298 298 297 296 296 296 296 296 295 295 296 296 296 296 296 296 295 295 293 292 292 290 288 285 282 280 278 276 275 275 275 274 273 272
293 292 292 293 295 298 298 297 297 298 298 298 298 298 297 298 298 298 298 299 299 299 299 299 298 298 297 296 296 295 294 292 291 287 284 281 279 277 276 276 276 276 275 274
292 293 294 294 297 297 297 297 297 298 299 300 299 299 299 300 301 300 300 301 301 301 301 301 300 299 298 297 296 296 295 294 292 290 287 284 282 280 279 278 277 277 276 274
293 293 292 293 296 298 297 297 297 298 299 300 299 300 301 301 301 302 302 301 302 302 303 302 301 300 299 298 297 296 294 293 292 290 288 286 284 283 281 279 278 276 275 273
293 292 292 293 296 297 297 297 298 298 299 300 301 301 301 302 302 303 304 303 303 303 303 303 302 302 301 300 298 296 295 294 293 291 289 287 286 283 281 280 279 277 275 274
292 292 293 295 296 298 299 299 299 300 301 301 301 301 302 302 302 303 304 304 304 304 303 304 303 303 302 302 299 297 296 295 294 293 291 290 288 285 283 281 279 278 276 275